Franklin, PA

9:49 AM EDT on October 21, 2019 (GMT -0400)
Venango Regional

Weather History for KFKL - August, 2019

Change the Weather History Date:

Wednesday, August 14, 2019

  Actual Average Record
Temperature  
Mean Temperature 71 °F -  
Max Temperature 78 °F 82 °F 95 °F (1936)
Min Temperature 63 °F 56 °F 40 °F (1930)
Cooling Degree Days 6    
Growing Degree Days 21 (Base 50)    
Moisture  
Dew Point 66 °F    
Average Humidity 95    
Maximum Humidity 100    
Minimum Humidity 68    
Precipitation  
Precipitation 0.00 in - - ()
Sea Level Pressure  
Sea Level Pressure 29.91 in    
Wind  
Wind Speed 1 mph (NNE)    
Max Wind Speed 7 mph    
Max Gust Speed -    
Visibility 4 miles    
Events Fog , Rain    
Averages and records for this station are not official NWS values.
T = Trace of Precipitation, MM = Missing Value Source: NWS Daily Summary

Daily Weather History Graph

Daily Weather History Graph

Search for Another Location

Airport or City:

Astronomy

Aug. 14, 2019 Rise Set
Actual Time 6:27 AM EDT 8:20 PM EDT
Civil Twilight 5:57 AM EDT 8:50 PM EDT
Nautical Twilight 5:20 AM EDT 9:26 PM EDT
Astronomical Twilight 4:41 AM EDT 10:05 PM EDT
Moon 8:14 PM EDT (8/14) 5:22 AM EDT (8/14)
Length of Visible Light 14h 52m
Length of Day
13h 53m
Waxing Gibbous, 99% of the Moon is Illuminated
Aug 14
Waxing Gibbous
Aug 15
Full
Aug 23
Last Quarter
Aug 30
New
Sep 5
First Quarter

Hourly Weather History & Observations

Time (EDT) Temp. Dew Point Humidity Pressure Visibility Wind Dir Wind Speed Gust Speed Precip Events Conditions
12:00 AM 66.2 °F 66.2 °F 100% 29.86 in 1.0 mi Calm Calm - N/A   Overcast
12:05 AM 66.2 °F 66.2 °F 100% 29.87 in 0.5 mi Calm Calm - N/A Fog Fog
12:18 AM 66.2 °F 66.2 °F 100% 29.87 in 0.8 mi Calm Calm - N/A   Overcast
12:20 AM 66.2 °F 66.2 °F 100% 29.87 in 0.5 mi Calm Calm - N/A Fog Fog
12:33 AM 66.2 °F 66.2 °F 100% 29.87 in 1.0 mi Calm Calm - N/A   Overcast
12:37 AM 66.2 °F 66.2 °F 100% 29.87 in 1.8 mi Calm Calm - N/A   Overcast
12:44 AM 66.2 °F 66.2 °F 100% 29.87 in 0.8 mi Calm Calm - N/A   Overcast
12:53 AM 66.2 °F 66.2 °F 100% 29.87 in 1.2 mi Calm Calm - N/A   Overcast
12:56 AM 66.9 °F 66.9 °F 100% 29.86 in 1.8 mi Calm Calm - N/A   Overcast
1:03 AM 66.2 °F 66.2 °F 100% 29.88 in 2.0 mi Calm Calm - N/A   Overcast
1:12 AM 66.2 °F 66.2 °F 100% 29.88 in 1.0 mi Calm Calm - N/A   Overcast
1:18 AM 66.2 °F 66.2 °F 100% 29.88 in 0.8 mi Calm Calm - N/A   Overcast
1:41 AM 66.2 °F 66.2 °F 100% 29.88 in 0.5 mi Calm Calm - N/A Fog Fog
1:48 AM 66.2 °F 66.2 °F 100% 29.88 in 0.5 mi Calm Calm - N/A Fog Fog
1:56 AM 66.9 °F 66.0 °F 97% 29.86 in 0.8 mi Calm Calm - N/A   Overcast
2:00 AM 66.2 °F 66.2 °F 100% 29.88 in 1.2 mi Calm Calm - N/A   Overcast
2:05 AM 66.2 °F 66.2 °F 100% 29.88 in 2.0 mi Calm Calm - N/A   Overcast
2:11 AM 66.2 °F 66.2 °F 100% 29.88 in 1.0 mi Calm Calm - N/A   Overcast
2:17 AM 66.2 °F 66.2 °F 100% 29.88 in 0.5 mi Calm Calm - N/A Fog Fog
2:56 AM 66.0 °F 66.0 °F 100% 29.85 in 0.2 mi Calm Calm - N/A Fog Fog
3:18 AM 66.2 °F 66.2 °F 100% 29.87 in 0.5 mi Calm Calm - N/A Fog Fog
3:35 AM 66.2 °F 64.4 °F 94% 29.87 in 0.2 mi Calm Calm - N/A Fog Fog
3:49 AM 64.4 °F 64.4 °F 100% 29.87 in 0.5 mi Calm Calm - N/A Fog Fog
3:56 AM 64.9 °F 64.0 °F 97% 29.86 in 0.2 mi NW 3.5 mph - N/A Fog Fog
4:04 AM 64.4 °F 64.4 °F 100% 29.87 in 0.5 mi Calm Calm - N/A Fog Fog
4:12 AM 64.4 °F 64.4 °F 100% 29.87 in 0.2 mi Variable 3.5 mph - N/A Fog Fog
4:56 AM 64.9 °F 64.9 °F 100% 29.86 in 0.2 mi Calm Calm - N/A Fog Fog
5:56 AM 64.9 °F 64.9 °F 100% 29.87 in 0.2 mi Calm Calm - N/A Fog Fog
6:56 AM 64.9 °F 64.9 °F 100% 29.90 in 0.2 mi NNE 3.5 mph - N/A Fog Fog
7:56 AM 64.9 °F 64.9 °F 100% 29.91 in 0.2 mi Calm Calm - N/A Fog Fog
8:56 AM 66.0 °F 66.0 °F 100% 29.93 in 0.2 mi Calm Calm - N/A Fog Fog
9:13 AM 66.2 °F 64.4 °F 94% 29.95 in 0.5 mi NNW 3.5 mph - N/A Fog Fog
9:33 AM 66.2 °F 66.2 °F 100% 29.95 in 0.2 mi North 3.5 mph - N/A Fog Fog
9:56 AM 66.0 °F 66.0 °F 100% 29.93 in 0.5 mi NE 3.5 mph - N/A Fog Fog
10:05 AM 66.2 °F 66.2 °F 100% 29.95 in 1.2 mi Variable 3.5 mph - N/A   Overcast
10:19 AM 66.2 °F 66.2 °F 100% 29.95 in 3.0 mi NNE 5.8 mph - N/A   Overcast
10:38 AM 68.0 °F 66.2 °F 94% 29.96 in 10.0 mi NNE 6.9 mph - N/A   Overcast
10:56 AM 68.0 °F 66.0 °F 93% 29.94 in 10.0 mi NNE 3.5 mph - N/A   Overcast
11:32 AM 69.8 °F 66.2 °F 88% 29.96 in 10.0 mi NE 4.6 mph - N/A   Overcast
11:56 AM 71.1 °F 66.0 °F 84% 29.94 in 10.0 mi Calm Calm - N/A   Overcast
12:07 PM 71.6 °F 66.2 °F 83% 29.96 in 10.0 mi NNE 4.6 mph - N/A   Overcast
12:19 PM 71.6 °F 66.2 °F 83% 29.96 in 10.0 mi East 3.5 mph - N/A   Mostly Cloudy
12:56 PM 75.9 °F 66.9 °F 74% 29.93 in 10.0 mi NNE 5.8 mph - N/A   Scattered Clouds
1:56 PM 78.1 °F 66.9 °F 68% 29.91 in 10.0 mi Variable 3.5 mph - N/A   Scattered Clouds
2:56 PM 75.9 °F 64.9 °F 69% 29.92 in 10.0 mi North 3.5 mph - N/A   Mostly Cloudy
3:56 PM 73.9 °F 66.9 °F 79% 29.93 in 10.0 mi WSW 6.9 mph - 0.00 in   Mostly Cloudy
4:56 PM 71.1 °F 66.9 °F 87% 29.94 in 10.0 mi South 5.8 mph - N/A   Mostly Cloudy
5:56 PM 71.1 °F 66.0 °F 84% 29.95 in 10.0 mi WSW 4.6 mph - N/A   Mostly Cloudy
6:56 PM 71.1 °F 68.0 °F 90% 29.94 in 10.0 mi WNW 3.5 mph - 0.00 in Rain Light Rain
7:56 PM 70.0 °F 66.0 °F 87% 29.94 in 10.0 mi Calm Calm - 0.00 in   Overcast
8:56 PM 68.0 °F 66.0 °F 93% 29.95 in 10.0 mi Calm Calm - N/A   Overcast
9:56 PM 64.9 °F 64.0 °F 97% 29.98 in 8.0 mi NNE 3.5 mph - N/A   Scattered Clouds
10:07 PM 64.4 °F 64.4 °F 100% 29.99 in 1.5 mi North 4.6 mph - N/A   Scattered Clouds
10:26 PM 66.2 °F 64.4 °F 94% 30.00 in 2.0 mi NNE 6.9 mph - N/A   Scattered Clouds
10:35 PM 64.4 °F 64.4 °F 100% 30.00 in 10.0 mi NNE 6.9 mph - N/A   Partly Cloudy
10:56 PM 64.9 °F 62.1 °F 90% 29.98 in 10.0 mi NE 6.9 mph - N/A   Clear
11:56 PM 63.0 °F 61.0 °F 93% 29.99 in 10.0 mi NNE 6.9 mph - N/A   Clear